GW2622 Weather Reports


time (UTC)temp
C
wind
direction
speed
KPH
gust
KPH
rain 1hr
cm
rain 24hr
cm
rain mn
cm
humidity
%
barometer
mb
20260507203043 19 233 9.7 11.3 0.00 0.00 0.00 38 1009.3
20260507202539 19 243 4.8 9.7 0.00 0.00 0.00 36 1009.4
20260507202035 20 238 8.0 17.7 0.00 0.00 0.00 36 1009.4
20260507201531 20 217 12.9 17.7 0.00 0.00 0.00 37 1009.4
20260507201027 20 223 11.3 17.7 0.00 0.00 0.00 38 1009.5
20260507200523 20 244 9.7 12.9 0.00 0.00 0.00 36 1009.4
20260507200019 20 200 12.9 27.4 0.00 0.00 0.00 37 1009.6
20260507195516 19 222 9.7 12.9 0.00 0.00 0.00 36 1009.7
20260507195014 19 261 6.4 11.3 0.00 0.00 0.00 35 1009.6
20260507194510 20 294 11.3 16.1 0.00 0.00 0.00 34 1009.7
20260507194006 20 244 11.3 16.1 0.00 0.00 0.00 35 1009.7
20260507193504 20 269 9.7 14.5 0.00 0.00 0.00 35 1009.9
20260507193000 19 276 8.0 16.1 0.00 0.00 0.00 34 1009.8
20260507192456 19 275 8.0 12.9 0.00 0.00 0.00 35 1009.9
20260507191953 20 238 4.8 11.3 0.00 0.00 0.00 35 1009.8
20260507191449 20 289 14.5 20.9 0.00 0.00 0.00 39 1010.3
20260507190946 19 245 3.2 14.5 0.00 0.00 0.00 37 1009.7
20260507190444 18 223 6.4 14.5 0.00 0.00 0.00 36 1009.9
20260507185942 19 288 8.0 20.9 0.00 0.00 0.00 36 1009.9
20260507185439 18 258 8.0 12.9 0.00 0.00 0.00 38 1010.2
20260507184936 18 254 9.7 17.7 0.00 0.00 0.00 36 1010.2
20260507184434 18 252 8.0 16.1 0.00 0.00 0.00 37 1010.2
20260507183932 18 257 4.8 9.7 0.00 0.00 0.00 39 1010.2
20260507183428 18 278 9.7 11.3 0.00 0.00 0.00 37 1010.0
20260507182925 18 308 4.8 14.5 0.00 0.00 0.00 38 1010.4
20260507182421 18 300 4.8 9.7 0.00 0.00 0.00 40 1010.2
20260507181918 18 260 8.0 14.5 0.00 0.00 0.00 40 1010.3
20260507181414 18 261 8.0 12.9 0.00 0.00 0.00 40 1010.3
20260507180910 17 257 3.2 17.7 0.00 0.00 0.00 41 1010.7
20260507180407 18 223 4.8 17.7 0.00 0.00 0.00 40 1010.5
20260507175903 18 249 11.3 14.5 0.00 0.00 0.00 43 1010.6
20260507175400 18 248 4.8 14.5 0.00 0.00 0.00 43 1010.7
20260507174858 18 252 4.8 16.1 0.00 0.00 0.00 43 1010.8
20260507174355 19 295 8.0 9.7 0.00 0.00 0.00 44 1010.8
20260507173852 18 322 8.0 20.9 0.00 0.00 0.00 46 1011.0
20260507173349 17 230 4.8 8.0 0.00 0.00 0.00 47 1011.3
20260507172845 17 288 4.8 14.5 0.00 0.00 0.00 49 1011.2
20260507172342 17 211 8.0 12.9 0.00 0.00 0.00 48 1011.2
20260507171838 17 333 9.7 16.1 0.00 0.00 0.00 48 1011.3
20260507171335 17 216 6.4 12.9 0.00 0.00 0.00 47 1011.6
20260507170832 17 243 3.2 8.0 0.00 0.00 0.00 50 1011.6
20260507170329 16 253 6.4 9.7 0.00 0.00 0.00 51 1011.7
20260507165824 16 213 8.0 11.3 0.00 0.00 0.00 53 1011.9
20260507165321 16 262 3.2 4.8 0.00 0.00 0.00 52 1012.0
20260507164817 16 230 4.8 12.9 0.00 0.00 0.00 54 1011.7
20260507164314 16 234 6.4 11.3 0.00 0.00 0.00 53 1012.1
20260507163811 15 241 8.0 11.3 0.00 0.00 0.00 54 1012.1
20260507163309 15 239 6.4 17.7 0.00 0.00 0.00 56 1012.1
20260507162805 15 216 8.0 14.5 0.00 0.00 0.00 55 1012.0
20260507162300 16 239 3.2 4.8 0.00 0.00 0.00 55 1012.2
20260507161758 16 255 1.6 4.8 0.00 0.00 0.00 55 1012.3
20260507161254 14 256 1.6 9.7 0.00 0.00 0.00 59 1012.3
20260507160750 13 253 8.0 11.3 0.00 0.00 0.00 58 1012.3
20260507160247 14 240 4.8 11.3 0.00 0.00 0.00 60 1012.4
20260507155743 14 295 6.4 9.7 0.00 0.00 0.00 56 1012.4
20260507155239 14 237 3.2 9.7 0.00 0.00 0.00 59 1012.6
20260507154736 14 290 11.3 14.5 0.00 0.00 0.00 58 1012.7
20260507154233 13 265 4.8 11.3 0.00 0.00 0.00 62 1012.6
20260507153730 13 251 3.2 4.8 0.00 0.00 0.00 67 1012.6
20260507153226 13 251 4.8 9.7 0.00 0.00 0.00 64 1012.6
20260507152723 12 217 1.6 4.8 0.00 0.00 0.00 68 1012.5
20260507152219 12 244 4.8 8.0 0.00 0.00 0.00 67 1012.4
20260507151715 12 250 3.2 3.2 0.00 0.00 0.00 69 1012.5
20260507151212 11 195 4.8 9.7 0.00 0.00 0.00 70 1012.0
20260507150709 11 43 3.2 3.2 0.00 0.00 0.00 74 1012.4
20260507150206 10 46 4.8 4.8 0.00 0.00 0.00 75 1012.7
20260507145701 10 15 3.2 3.2 0.00 0.00 0.00 75 1013.1
20260507145158 10 341 8.0 11.3 0.00 0.00 0.00 75 1013.3
20260507144654 10 12 4.8 11.3 0.00 0.00 0.00 75 1013.3
20260507144153 10 349 4.8 9.7 0.00 0.00 0.00 75 1013.2
20260507143650 10 33 8.0 11.3 0.00 0.00 0.00 73 1013.1
20260507143147 11 1 6.4 9.7 0.00 0.00 0.00 72 1013.2
20260507142642 11 339 8.0 11.3 0.00 0.00 0.00 72 1013.3
20260507142139 11 345 3.2 8.0 0.00 0.00 0.00 72 1013.2
20260507141635 11 349 4.8 8.0 0.00 0.00 0.00 71 1013.2
20260507141132 11 316 4.8 9.7 0.00 0.00 0.00 70 1013.0
20260507140629 10 288 4.8 8.0 0.00 0.00 0.00 70 1013.1
20260507140126 11 265 4.8 8.0 0.00 0.00 0.00 70 1013.1
20260507135623 10 266 3.2 8.0 0.00 0.00 0.00 70 1013.1
20260507135121 10 303 6.4 12.9 0.00 0.00 0.00 69 1012.9
20260507134616 10 287 1.6 4.8 0.00 0.00 0.00 71 1012.9
20260507134113 10 235 8.0 11.3 0.00 0.00 0.00 70 1012.7
20260507133609 10 226 6.4 12.9 0.00 0.00 0.00 71 1012.8
20260507133107 10 226 11.3 16.1 0.00 0.00 0.00 71 1012.7
20260507132603 9 216 9.7 12.9 0.00 0.00 0.00 71 1012.5
20260507132100 9 251 4.8 11.3 0.00 0.00 0.00 72 1012.6
20260507131557 9 240 4.8 11.3 0.00 0.00 0.00 72 1012.6
20260507131054 9 245 8.0 11.3 0.00 0.00 0.00 72 1012.6
20260507130551 9 255 6.4 8.0 0.00 0.00 0.00 72 1012.6
20260507130049 9 237 4.8 16.1 0.00 0.00 0.00 72 1012.6
20260507125547 8 213 4.8 11.3 0.00 0.00 0.00 73 1012.5
20260507125044 8 242 8.0 11.3 0.00 0.00 0.00 72 1012.4
20260507124540 8 220 8.0 12.9 0.00 0.00 0.00 72 1012.3
20260507124038 8 217 9.7 12.9 0.00 0.00 0.00 71 1012.4
20260507123536 8 197 8.0 12.9 0.00 0.00 0.00 71 1012.3
20260507123033 7 211 6.4 11.3 0.00 0.00 0.00 72 1012.4
20260507122528 7 208 8.0 9.7 0.00 0.00 0.00 74 1012.3
20260507122024 7 206 8.0 11.3 0.00 0.00 0.00 74 1012.3
20260507121520 7 219 6.4 9.7 0.00 0.00 0.00 74 1012.3
20260507121016 6 203 6.4 8.0 0.00 0.00 0.00 73 1012.2
20260507120512 6 215 4.8 9.7 0.00 0.00 0.00 73 1012.4
20260507120010 6 220 6.4 8.0 0.00 0.00 0.00 73 1012.2
20260507115505 6 208 6.4 8.0 0.00 0.00 0.00 74 1012.3
20260507115001 5 216 6.4 9.7 0.00 0.00 0.00 74 1012.3
20260507114458 5 225 8.0 9.7 0.00 0.00 0.00 74 1012.3
20260507113955 5 224 4.8 8.0 0.00 0.00 0.00 73 1012.1
20260507113452 5 224 6.4 9.7 0.00 0.00 0.00 74 1012.3
20260507112949 5 218 4.8 8.0 0.00 0.00 0.00 73 1012.2
20260507112447 5 239 4.8 8.0 0.00 0.00 0.00 73 1012.3
20260507111943 5 219 6.4 9.7 0.00 0.00 0.00 73 1012.2
20260507111441 5 221 6.4 9.7 0.00 0.00 0.00 72 1012.1
20260507110937 5 209 6.4 8.0 0.00 0.00 0.00 72 1012.0
20260507110433 5 218 8.0 11.3 0.00 0.00 0.00 71 1012.1
20260507105930 5 222 6.4 11.3 0.00 0.00 0.00 71 1012.1
20260507105427 5 218 8.0 9.7 0.00 0.00 0.00 71 1012.1
20260507104923 5 218 4.8 9.7 0.00 0.00 0.00 70 1012.2
20260507104421 5 223 6.4 9.7 0.00 0.00 0.00 69 1012.1
20260507103916 5 217 6.4 9.7 0.00 0.00 0.00 69 1012.3
20260507103413 5 217 6.4 9.7 0.00 0.00 0.00 69 1012.3
20260507102909 5 209 6.4 9.7 0.00 0.00 0.00 69 1012.4
20260507102406 5 224 4.8 9.7 0.00 0.00 0.00 68 1012.6
20260507101902 5 218 6.4 9.7 0.00 0.00 0.00 68 1012.4
20260507101402 5 222 3.2 4.8 0.00 0.00 0.00 68 1012.5
20260507100859 5 206 3.2 3.2 0.00 0.00 0.00 68 1012.5
20260507100357 5 199 3.2 4.8 0.00 0.00 0.00 68 1012.7
20260507095855 5 192 1.6 8.0 0.00 0.00 0.00 67 1012.6
20260507095351 5 219 1.6 3.2 0.00 0.00 0.00 67 1012.9
20260507094849 5 213 1.6 3.2 0.00 0.00 0.00 66 1012.8
20260507094345 6 196 1.6 4.8 0.00 0.00 0.00 65 1012.8
20260507093842 6 221 1.6 3.2 0.00 0.00 0.00 65 1012.9
20260507093340 6 216 3.2 4.8 0.00 0.00 0.00 64 1012.9
20260507092839 6 227 3.2 3.2 0.00 0.00 0.00 64 1012.9
20260507092334 6 221 4.8 4.8 0.00 0.00 0.00 64 1012.9
20260507091831 6 220 3.2 9.7 0.00 0.00 0.00 64 1013.1
20260507091327 6 219 1.6 4.8 0.00 0.00 0.00 64 1013.0
20260507090823 6 214 4.8 8.0 0.00 0.00 0.00 64 1013.0
20260507090320 6 221 1.6 4.8 0.00 0.00 0.00 65 1013.3
20260507085817 6 186 4.8 8.0 0.00 0.00 0.00 65 1013.2
20260507085313 5 221 3.2 3.2 0.00 0.00 0.00 66 1013.4
20260507084811 5 220 4.8 8.0 0.00 0.00 0.00 66 1013.7
20260507084307 5 219 8.0 11.3 0.00 0.00 0.00 64 1013.3
20260507083805 5 220 4.8 4.8 0.00 0.00 0.00 66 1013.6
20260507083301 5 221 3.2 3.2 0.00 0.00 0.00 66 1013.6
20260507082757 5 216 8.0 9.7 0.00 0.00 0.00 65 1013.9
20260507082253 5 224 8.0 9.7 0.00 0.00 0.00 65 1013.7
20260507081750 5 217 6.4 9.7 0.00 0.00 0.00 65 1014.0
20260507081246 5 208 4.8 9.7 0.00 0.00 0.00 66 1014.0
20260507080743 5 216 4.8 4.8 0.00 0.00 0.00 66 1014.1
20260507080239 5 217 4.8 8.0 0.00 0.00 0.00 66 1013.9
20260507075734 5 215 4.8 9.7 0.00 0.00 0.00 65 1013.9
20260507075231 5 208 4.8 9.7 0.00 0.00 0.00 64 1014.0
20260507074727 5 212 4.8 4.8 0.00 0.00 0.00 65 1013.9
20260507074226 5 213 4.8 8.0 0.00 0.00 0.00 65 1014.2
20260507073722 5 214 4.8 8.0 0.00 0.00 0.00 64 1014.4
20260507073218 5 213 4.8 8.0 0.00 0.00 0.00 64 1014.3
20260507072717 5 209 4.8 4.8 0.00 0.00 0.00 66 1014.3
20260507072213 5 217 8.0 9.7 0.00 0.00 0.00 65 1014.3
20260507071711 5 219 8.0 11.3 0.00 0.00 0.00 65 1014.3
20260507071207 5 211 6.4 9.7 0.00 0.00 0.00 65 1014.6
20260507070704 5 216 6.4 9.7 0.00 0.00 0.00 65 1014.6
20260507070201 5 217 8.0 9.7 0.00 0.00 0.00 65 1014.6
20260507065657 5 221 6.4 9.7 0.00 0.00 0.00 65 1014.9
20260507065154 4 218 4.8 8.0 0.00 0.00 0.00 66 1014.8
20260507064652 4 218 6.4 8.0 0.00 0.00 0.00 67 1014.8
20260507064150 4 223 4.8 4.8 0.00 0.00 0.00 67 1014.9
20260507063648 4 220 6.4 9.7 0.00 0.00 0.00 66 1015.0
20260507063144 4 228 1.6 4.8 0.00 0.00 0.00 69 1014.9
20260507062641 4 224 4.8 4.8 0.00 0.00 0.00 68 1015.0
20260507062139 5 225 4.8 4.8 0.00 0.00 0.00 67 1015.1
20260507061637 5 225 4.8 8.0 0.00 0.00 0.00 66 1015.2
20260507061134 4 220 4.8 4.8 0.00 0.00 0.00 67 1015.2
20260507060632 5 221 4.8 8.0 0.00 0.00 0.00 67 1015.1
20260507060128 4 231 1.6 3.2 0.00 0.00 0.00 69 1015.3
20260507055624 4 231 3.2 3.2 0.00 0.00 0.00 69 1015.4
20260507055120 4 231 1.6 3.2 0.00 0.00 0.00 68 1015.3
20260507054616 5 232 3.2 4.8 0.00 0.00 0.00 67 1015.4
20260507054113 5 238 3.2 3.2 0.00 0.00 0.00 67 1015.3
20260507053611 5 239 1.6 1.6 0.00 0.00 0.00 67 1015.4
20260507053109 5 239 1.6 3.2 0.00 0.00 0.00 67 1015.4
20260507052607 5 238 1.6 3.2 0.00 0.00 0.00 66 1015.4
20260507052103 5 237 1.6 3.2 0.00 0.00 0.00 64 1015.4
20260507051601 5 244 3.2 3.2 0.00 0.00 0.00 62 1015.5
20260507051057 5 245 1.6 3.2 0.00 0.00 0.00 61 1015.4
20260507050554 5 245 1.6 1.6 0.00 0.00 0.00 61 1015.7
20260507050051 6 245 1.6 1.6 0.00 0.00 0.00 59 1015.6
20260507045548 6 245 1.6 1.6 0.00 0.00 0.00 59 1015.5
20260507045045 6 245 1.6 1.6 0.00 0.00 0.00 59 1015.6
20260507044541 6 245 1.6 1.6 0.00 0.00 0.00 58 1015.7
20260507044038 6 245 1.6 1.6 0.00 0.00 0.00 57 1015.8
20260507043534 6 245 1.6 1.6 0.00 0.00 0.00 57 1015.7
20260507043032 6 245 1.6 1.6 0.00 0.00 0.00 56 1015.7
20260507042527 6 245 1.6 1.6 0.00 0.00 0.00 56 1015.9
20260507042023 6 245 1.6 3.2 0.00 0.00 0.00 56 1015.9
20260507041520 6 245 1.6 1.6 0.00 0.00 0.00 56 1015.8
20260507041017 6 244 1.6 3.2 0.00 0.00 0.00 56 1015.9
20260507040513 7 244 1.6 3.2 0.00 0.00 0.00 54 1015.9
20260507040009 7 244 1.6 3.2 0.00 0.00 0.00 54 1015.9
20260507035506 7 245 1.6 1.6 0.00 0.00 0.00 53 1015.9
20260507035002 7 245 1.6 1.6 0.00 0.00 0.00 55 1015.9
20260507034459 6 245 1.6 1.6 0.00 0.00 0.00 54 1016.0
20260507033957 6 245 1.6 3.2 0.00 0.00 0.00 55 1016.0
20260507033455 6 245 1.6 1.6 0.00 0.00 0.00 55 1016.1
20260507032952 7 244 1.6 1.6 0.00 0.00 0.00 54 1016.1
20260507032449 7 244 1.6 1.6 0.00 0.00 0.00 52 1016.2
20260507031945 7 246 1.6 1.6 0.00 0.00 0.00 50 1016.0
20260507031441 7 246 0.0 1.6 0.00 0.00 0.00 50 1016.0
20260507030938 7 245 0.0 1.6 0.00 0.00 0.00 51 1015.9
20260507030435 7 245 0.0 1.6 0.00 0.00 0.00 51 1016.1
20260507025933 7 245 1.6 1.6 0.00 0.00 0.00 51 1016.0
20260507025430 7 244 0.0 1.6 0.00 0.00 0.00 51 1016.1
20260507024927 7 242 1.6 1.6 0.00 0.00 0.00 50 1016.1
20260507024424 8 240 1.6 3.2 0.00 0.00 0.00 49 1016.3
20260507023920 8 312 1.6 1.6 0.00 0.00 0.00 49 1016.0
20260507023417 9 312 0.0 0.0 0.00 0.00 0.00 51 1016.0
20260507022914 9 313 0.0 0.0 0.00 0.00 0.00 46 1016.0
20260507022411 9 313 0.0 0.0 0.00 0.00 0.00 43 1016.2
20260507021907 9 313 0.0 0.0 0.00 0.00 0.00 43 1015.8
20260507021408 9 313 0.0 0.0 0.00 0.00 0.00 43 1016.0
20260507020906 8 313 0.0 0.0 0.00 0.00 0.00 45 1015.9
20260507020402 8 313 0.0 0.0 0.00 0.00 0.00 43 1015.8
20260507015859 9 313 0.0 0.0 0.00 0.00 0.00 41 1015.8
20260507015357 9 313 0.0 0.0 0.00 0.00 0.00 42 1015.8
20260507014854 9 313 0.0 0.0 0.00 0.00 0.00 43 1015.7
20260507014350 9 313 0.0 0.0 0.00 0.00 0.00 45 1015.7
20260507013847 9 313 0.0 0.0 0.00 0.00 0.00 43 1015.8
20260507013344 10 313 0.0 0.0 0.00 0.00 0.00 42 1015.7
20260507012841 10 313 0.0 0.0 0.00 0.00 0.00 41 1015.9
20260507012337 10 313 0.0 3.2 0.00 0.00 0.00 40 1015.6
20260507011834 11 309 0.0 1.6 0.00 0.00 0.00 40 1015.6
20260507011331 11 310 0.0 0.0 0.00 0.00 0.00 40 1015.6
20260507010826 11 309 1.6 1.6 0.00 0.00 0.00 38 1015.6
20260507010322 12 313 0.0 1.6 0.00 0.00 0.00 38 1015.8
20260507005819 12 313 0.0 1.6 0.00 0.00 0.00 36 1015.8
20260507005315 12 329 1.6 3.2 0.00 0.00 0.00 37 1015.7
20260507004807 12 325 1.6 1.6 0.00 0.00 0.00 35 1015.6
20260507004304 12 320 0.0 1.6 0.00 0.00 0.00 35 1015.8
20260507003801 12 318 3.2 9.7 0.00 0.00 0.00 34 1015.8
20260507003255 12 324 3.2 9.7 0.00 0.00 0.00 34 1015.7
20260507002752 12 342 6.4 11.3 0.00 0.00 0.00 34 1015.7
20260507002248 13 354 11.3 14.5 0.00 0.00 0.00 34 1015.7
20260507001745 13 303 3.2 9.7 0.00 0.00 0.00 34 1015.9
20260507001243 13 300 3.2 12.9 0.00 0.00 0.00 32 1015.7
20260507000739 13 316 8.0 16.1 0.00 0.00 0.00 33 1015.9
20260507000235 13 313 6.4 16.1 0.00 0.00 0.00 34 1015.8
20260506235731 13 28 4.8 20.9 0.00 0.00 0.00 33 1015.9
20260506235227 13 341 11.3 11.3 0.00 0.00 0.00 32 1015.8
20260506234724 13 357 11.3 17.7 0.00 0.00 0.00 33 1015.9
20260506234221 13 344 3.2 9.7 0.00 0.00 0.00 33 1015.9
20260506233719 13 256 11.3 14.5 0.00 0.00 0.00 32 1015.9
20260506233215 13 335 11.3 24.1 0.00 0.00 0.00 33 1015.9
20260506232712 13 355 6.4 11.3 0.00 0.00 0.00 32 1016.1
20260506232206 13 295 9.7 20.9 0.00 0.00 0.00 32 1016.0
20260506231704 13 333 4.8 12.9 0.00 0.00 0.00 35 1016.0
20260506231203 13 320 6.4 9.7 0.00 0.00 0.00 32 1016.2
20260506230659 13 330 6.4 11.3 0.00 0.00 0.00 33 1016.1
20260506230156 13 314 9.7 24.1 0.00 0.00 0.00 32 1016.4
20260506225652 13 0 12.9 22.5 0.00 0.00 0.00 33 1016.3
20260506225149 13 299 11.3 16.1 0.00 0.00 0.00 32 1016.3
20260506224645 13 342 8.0 12.9 0.00 0.00 0.00 34 1016.2
20260506224142 13 339 8.0 16.1 0.00 0.00 0.00 32 1016.2
20260506223639 13 330 6.4 16.1 0.00 0.00 0.00 32 1016.4
20260506223135 13 355 16.1 22.5 0.00 0.00 0.00 33 1016.3
20260506222632 13 25 8.0 22.5 0.00 0.00 0.00 35 1016.1
20260506222128 13 343 6.4 16.1 0.00 0.00 0.00 35 1016.1
20260506221626 13 303 8.0 9.7 0.00 0.00 0.00 33 1016.2
20260506221123 13 342 12.9 17.7 0.00 0.00 0.00 33 1016.2
20260506220620 14 310 11.3 20.9 0.00 0.00 0.00 33 1016.4
20260506220115 13 286 8.0 11.3 0.00 0.00 0.00 36 1016.3
20260506215612 13 343 1.6 20.9 0.00 0.00 0.00 35 1016.5
20260506215108 13 17 14.5 22.5 0.00 0.00 0.00 33 1016.5
20260506214605 14 301 8.0 14.5 0.00 0.00 0.00 33 1016.6
20260506214102 14 326 4.8 27.4 0.00 0.00 0.00 32 1016.5
20260506213600 13 330 16.1 24.1 0.00 0.00 0.00 31 1016.4
20260506213057 13 224 4.8 12.9 0.00 0.00 0.00 35 1016.4
20260506212554 14 341 1.6 11.3 0.00 0.00 0.00 33 1016.5
20260506212048 13 18 9.7 20.9 0.00 0.00 0.00 34 1016.4
20260506211545 14 322 17.7 24.1 0.00 0.00 0.00 34 1016.7
20260506211042 13 328 4.8 16.1 0.00 0.00 0.00 36 1016.7
20260506210538 13 330 6.4 14.5 0.00 0.00 0.00 34 1016.7
20260506210035 13 250 12.9 17.7 0.00 0.00 0.00 33 1016.6
20260506205532 13 314 20.9 24.1 0.00 0.00 0.00 34 1016.6
20260506205027 13 319 1.6 11.3 0.00 0.00 0.00 35 1016.8
20260506204526 13 319 11.3 12.9 0.00 0.00 0.00 34 1016.8
20260506204022 13 283 3.2 17.7 0.00 0.00 0.00 37 1016.8
20260506203521 12 339 3.2 16.1 0.00 0.00 0.00 38 1016.8